Tracking 25734 objects as of 28-May-2022
HD Live streaming from Space Station
objects crossing your sky now

COSMOS 1481 DEB

Track COSMOS 1481 DEB now!


NORAD ID: 27907
Int'l Code: 1983-070J
Perigee: 2,866.1 km
Apogee: 37,870.0 km
Inclination: 69.4 °
Period: 725.2 minutes
Semi major axis: 26739 km
RCS: 0.1866 m2 (medium)
Launch date: July 8, 1983
Source: Commonwealth of Independent States (former USSR) (CIS)
Launch site: PLESETSK MISSILE AND SPACE COMPLEX (PKMTR)

Note: This is SATELLITE DEBRIS
aabbcc
Your satellite tracking list
Your tracking list is empty




NASA's NSSDC Master Catalog

Two Line Element Set (TLE):
1 27907U 83070J   22144.70588369 -.00000140  00000-0  00000-0 0  9998
2 27907  69.3595 304.9679 6545465 312.2781   8.1102  1.98556134179428
Source of the keplerian elements: AFSPC